Location: Le Castellard
(44.1862°N, 6.1301°E)
Time: 19:22:04
(UTC+00:00)

STARLINK-80 - Pass Details

Date: 18 January 2020
Orbit: 491 x 494 km, 53.0° (Epoch: 28 February)

Event Time Altitude Azimuth Distance (km) Brightness Sun altitude
Exits shadow 05:06:11 82° 270° (W) 502 3.2 -21.1°
Maximum altitude 05:06:19 85° 324° (NW) 499 3.2 -21.1°
Drops below altitude 10° 05:10:08 10° 55° (NE) 1,688 6.7 -20.4°
Sets 05:12:19 0° 56° (NE) 2,572 7.8 -20.1°
